Estación de Pirque
Ultimos registro cada 15 minutos 95
| N° | Estación | Fecha / Hora | Temperatura | Humedad | Lluvia | Velocidad | Dirección | Radiación | Presion |
| 95 | Pirque | 07-05-2026 23:30 | 9,4 | 91,7 | 0 | 0 | 271 | 0,6 | 945,2 |
| 94 | Pirque | 07-05-2026 23:15 | 9,4 | 91,5 | 0 | 0 | 274 | 0,6 | 945,4 |
| 93 | Pirque | 07-05-2026 23:00 | 9,5 | 91 | 0 | 0 | 275 | 0,6 | 945,1 |
| 92 | Pirque | 07-05-2026 22:45 | 9,3 | 89,7 | 0 | 0 | 275 | 0,6 | 945,7 |
| 91 | Pirque | 07-05-2026 22:30 | 10 | 88,6 | 0 | 0 | 275 | 0,6 | 945,6 |
| 90 | Pirque | 07-05-2026 22:15 | 10 | 88,6 | 0 | 0 | 275 | 0,6 | 945,6 |
| 89 | Pirque | 07-05-2026 22:00 | 10,1 | 88 | 0 | 0 | 275 | 0,6 | 945,7 |
| 88 | Pirque | 07-05-2026 21:45 | 10 | 88,8 | 0 | 0 | 275 | 0,6 | 945,6 |
| 87 | Pirque | 07-05-2026 21:30 | 9,9 | 87,6 | 0 | 0 | 275 | 0,6 | 945,8 |
| 86 | Pirque | 07-05-2026 21:15 | 10,3 | 85,2 | 0 | 0 | 275 | 0,6 | 945,6 |
| 85 | Pirque | 07-05-2026 21:00 | 10,6 | 85,5 | 0 | 0 | 275 | 0,6 | 945,4 |
| 84 | Pirque | 07-05-2026 20:45 | 10,2 | 86,4 | 0 | 0 | 275 | 0,6 | 945,6 |
| 83 | Pirque | 07-05-2026 20:30 | 10,2 | 83,9 | 0 | 0 | 275 | 0,6 | 945,2 |
| 82 | Pirque | 07-05-2026 20:15 | 10,8 | 82,3 | 0 | 0 | 275 | 0,6 | 945,2 |
| 81 | Pirque | 07-05-2026 20:00 | 10,6 | 81,7 | 0 | 0 | 275 | 0,6 | 945,7 |
| 80 | Pirque | 07-05-2026 19:45 | 11,6 | 78 | 0 | 0 | 275 | 0,6 | 945 |
| 79 | Pirque | 07-05-2026 19:30 | 11,8 | 77 | 0 | 0 | 275 | 0,6 | 945,3 |
| 78 | Pirque | 07-05-2026 19:15 | 11,9 | 76 | 0 | 0 | 275 | 0,6 | 945,6 |
| 77 | Pirque | 07-05-2026 19:00 | 12,1 | 75,5 | 0 | 0 | 272 | 0,6 | 945,7 |
| 76 | Pirque | 07-05-2026 18:45 | 12,1 | 78,3 | 0 | 0 | 268 | 0,6 | 945,2 |
| 75 | Pirque | 07-05-2026 18:30 | 12,3 | 76,5 | 0 | 0 | 268 | 0,6 | 945,5 |
| 74 | Pirque | 07-05-2026 18:15 | 12,3 | 75,1 | 0 | 0 | 268 | 0,6 | 945,2 |
| 73 | Pirque | 07-05-2026 18:00 | 12,8 | 72,2 | 0 | 0 | 268 | 1,9 | 945,3 |
| 72 | Pirque | 07-05-2026 17:45 | 13,7 | 69,8 | 0 | 0 | 267 | 14,4 | 945 |
| 71 | Pirque | 07-05-2026 17:30 | 15,2 | 65,3 | 0 | 0 | 264 | 93,1 | 945 |
| 70 | Pirque | 07-05-2026 17:15 | 14,4 | 66,5 | 0 | 0 | 254 | 129,4 | 944,9 |
| 69 | Pirque | 07-05-2026 17:00 | 14,6 | 64 | 0 | 0 | 263 | 46,9 | 944,7 |
| 68 | Pirque | 07-05-2026 16:45 | 16,8 | 56,9 | 0 | 0 | 285 | 209,4 | 944,8 |
| 67 | Pirque | 07-05-2026 16:30 | 16,9 | 55,6 | 0 | 0 | 285 | 250,6 | 944,6 |
| 66 | Pirque | 07-05-2026 16:15 | 17 | 55,5 | 0 | 0 | 281 | 293,1 | 944,6 |
| 65 | Pirque | 07-05-2026 16:00 | 16,7 | 56,7 | 0 | 0 | 278 | 336,9 | 944,5 |
| 64 | Pirque | 07-05-2026 15:45 | 17,2 | 56,9 | 0 | 0 | 261 | 378,1 | 944,8 |
| 63 | Pirque | 07-05-2026 15:30 | 17,6 | 56,9 | 0 | 0 | 286 | 418,1 | 944,6 |
| 62 | Pirque | 07-05-2026 15:15 | 17,2 | 56,2 | 0 | 0 | 261 | 450,6 | 944,7 |
| 61 | Pirque | 07-05-2026 15:00 | 17,2 | 56,8 | 0 | 0 | 258 | 479,4 | 944,5 |
| 60 | Pirque | 07-05-2026 14:45 | 16,6 | 56,8 | 0 | 0 | 248 | 513,1 | 944,5 |
| 59 | Pirque | 07-05-2026 14:30 | 16,6 | 57,9 | 0 | 0 | 282 | 540,6 | 944,4 |
| 58 | Pirque | 07-05-2026 14:15 | 16,2 | 60,5 | 0 | 0 | 288 | 560,6 | 944,5 |
| 57 | Pirque | 07-05-2026 14:00 | 16,5 | 59,8 | 0 | 0 | 289 | 578,1 | 944,9 |
| 56 | Pirque | 07-05-2026 13:45 | 16,4 | 61,5 | 0 | 0 | 281 | 599,4 | 944,9 |
| 55 | Pirque | 07-05-2026 13:30 | 16,2 | 64,3 | 0 | 0 | 251 | 610,6 | 945,5 |
| 54 | Pirque | 07-05-2026 13:15 | 15,8 | 61,1 | 0 | 0 | 267 | 620,6 | 945,5 |
| 53 | Pirque | 07-05-2026 13:00 | 15,9 | 61,9 | 0 | 0 | 286 | 620,6 | 945,8 |
| 52 | Pirque | 07-05-2026 12:45 | 15,9 | 61,7 | 0 | 0 | 291 | 628,1 | 945,8 |
| 51 | Pirque | 07-05-2026 12:30 | 15,5 | 59,6 | 0 | 0 | 291 | 651,9 | 945,8 |
| 50 | Pirque | 07-05-2026 12:15 | 15,8 | 61,9 | 0 | 0 | 286 | 636,9 | 946,3 |
| 49 | Pirque | 07-05-2026 12:00 | 16,2 | 59 | 0 | 0 | 303 | 618,1 | 946,3 |
| 48 | Pirque | 07-05-2026 11:45 | 15,5 | 61,1 | 0 | 0 | 303 | 598,1 | 945,9 |
| 47 | Pirque | 07-05-2026 11:30 | 15,5 | 62,1 | 0 | 0 | 303 | 583,1 | 946,1 |
| 46 | Pirque | 07-05-2026 11:15 | 14,8 | 62,9 | 0 | 0 | 303 | 561,9 | 946,4 |
| 45 | Pirque | 07-05-2026 11:00 | 15,5 | 63,9 | 0 | 0 | 303 | 546,9 | 946,3 |
| 44 | Pirque | 07-05-2026 10:45 | 14 | 65,2 | 0 | 0 | 292 | 516,9 | 946,6 |
| 43 | Pirque | 07-05-2026 10:30 | 13,7 | 66,6 | 0 | 0 | 234 | 501,9 | 946,6 |
| 42 | Pirque | 07-05-2026 10:15 | 14,8 | 69,1 | 0 | 0 | 234 | 503,1 | 946,5 |
| 41 | Pirque | 07-05-2026 10:00 | 12,4 | 80 | 0 | 0 | 234 | 365,6 | 946,8 |
| 40 | Pirque | 07-05-2026 09:45 | 11,2 | 84,2 | 0 | 0 | 234 | 84,4 | 946,7 |
| 39 | Pirque | 07-05-2026 09:30 | 12,9 | 80,6 | 0 | 0 | 239 | 71,9 | 946,5 |
| 38 | Pirque | 07-05-2026 09:15 | 13,6 | 83,1 | 0 | 0 | 296 | 373,1 | 946,5 |
| 37 | Pirque | 07-05-2026 09:00 | 11,6 | 89,2 | 0 | 0 | 302 | 188,1 | 946,6 |
| 36 | Pirque | 07-05-2026 08:45 | 11,1 | 94,8 | 0 | 0 | 302 | 198,1 | 946,5 |
| 35 | Pirque | 07-05-2026 08:30 | 9,2 | 96,5 | 0 | 0 | 302 | 56,9 | 946,5 |
| 34 | Pirque | 07-05-2026 08:15 | 8,7 | 96,9 | 0 | 0 | 303 | 35,6 | 946,5 |
| 33 | Pirque | 07-05-2026 08:00 | 9,2 | 97,5 | 0 | 0 | 305 | 19,4 | 946,2 |
| 32 | Pirque | 07-05-2026 07:45 | 9,2 | 97,5 | 0 | 0 | 305 | 11,9 | 945,9 |
| 31 | Pirque | 07-05-2026 07:30 | 9 | 97,4 | 0 | 0 | 305 | 1,9 | 945,9 |
| 30 | Pirque | 07-05-2026 07:15 | 8,9 | 97,3 | 0 | 0 | 305 | 0,6 | 945,8 |
| 29 | Pirque | 07-05-2026 07:00 | 9 | 97,3 | 0 | 0 | 305 | 0,6 | 945,8 |
| 28 | Pirque | 07-05-2026 06:45 | 9 | 97,2 | 0 | 0 | 305 | 0,6 | 945,6 |
| 27 | Pirque | 07-05-2026 06:30 | 9,1 | 97,1 | 0 | 0 | 305 | 0,6 | 945,2 |
| 26 | Pirque | 07-05-2026 06:15 | 9,2 | 97,2 | 0 | 0 | 305 | 0,6 | 945,5 |
| 25 | Pirque | 07-05-2026 06:00 | 9,2 | 97,1 | 0 | 0 | 305 | 0,6 | 945,1 |
| 24 | Pirque | 07-05-2026 05:45 | 9,3 | 96,9 | 0 | 0 | 305 | 0,6 | 945 |
| 23 | Pirque | 07-05-2026 05:30 | 9,4 | 96,9 | 0 | 0 | 305 | 0,6 | 944,8 |
| 22 | Pirque | 07-05-2026 05:15 | 9,4 | 96,8 | 0 | 0 | 305 | 0,6 | 944,5 |
| 21 | Pirque | 07-05-2026 05:00 | 9,4 | 96,8 | 0 | 0 | 305 | 0,6 | 944,5 |
| 20 | Pirque | 07-05-2026 04:45 | 9,5 | 96,8 | 0 | 0 | 305 | 0,6 | 944,6 |
| 19 | Pirque | 07-05-2026 04:30 | 9,5 | 96,7 | 0 | 0 | 305 | 0,6 | 944,5 |
| 18 | Pirque | 07-05-2026 04:15 | 9,5 | 96,7 | 0 | 0 | 305 | 0,6 | 944,3 |
| 17 | Pirque | 07-05-2026 04:00 | 9,5 | 96,7 | 0 | 0 | 305 | 0,6 | 944,2 |
| 16 | Pirque | 07-05-2026 03:45 | 9,5 | 96,7 | 0 | 0 | 305 | 0,6 | 944,4 |
| 15 | Pirque | 07-05-2026 03:30 | 9,5 | 96,6 | 0 | 0 | 305 | 0,6 | 944,4 |
| 14 | Pirque | 07-05-2026 03:15 | 9,5 | 96,5 | 0 | 0 | 305 | 0,6 | 944,2 |
| 13 | Pirque | 07-05-2026 03:00 | 9,4 | 96,5 | 0 | 0 | 305 | 0,6 | 944,3 |
| 12 | Pirque | 07-05-2026 02:45 | 9,4 | 96,5 | 0 | 0 | 305 | 0,6 | 944,2 |
| 11 | Pirque | 07-05-2026 02:30 | 9,4 | 96,3 | 0 | 0 | 305 | 0,6 | 944,4 |
| 10 | Pirque | 07-05-2026 02:15 | 9,4 | 96,3 | 0 | 0 | 305 | 0,6 | 944,4 |
| 9 | Pirque | 07-05-2026 02:00 | 9,5 | 96,1 | 0 | 0 | 305 | 0,6 | 944,2 |
| 8 | Pirque | 07-05-2026 01:45 | 9,5 | 96 | 0 | 0 | 305 | 0,6 | 944,2 |
| 7 | Pirque | 07-05-2026 01:30 | 9,6 | 96 | 0 | 0 | 305 | 0,6 | 944,4 |
| 6 | Pirque | 07-05-2026 01:15 | 9,6 | 95,8 | 0 | 0 | 305 | 0,6 | 944,2 |
| 5 | Pirque | 07-05-2026 01:00 | 9,8 | 95,8 | 0 | 0 | 305 | 0,6 | 943,6 |
| 4 | Pirque | 07-05-2026 00:45 | 9,8 | 95,8 | 0 | 0 | 305 | 0,6 | 944,1 |
| 3 | Pirque | 07-05-2026 00:30 | 9,9 | 95,7 | 0 | 0 | 305 | 0,6 | 944,1 |
| 2 | Pirque | 07-05-2026 00:15 | 9,8 | 95,7 | 0 | 0 | 305 | 0,6 | 944,1 |
| 1 | Pirque | 07-05-2026 00:00 | 9,8 | 95,7 | 0 | 0 | 305 | 0,6 | 944,3 |